Regional Weather Roundup
Issued by NWS Cleveland, OH

Home | Current Version | Previous Version | Graphics & Text | Print | Product List | Glossary On
Versions: 1 2 3 4 5 6 7 8 9 10 11 12 13 14 15 16 17 18 19 20 21 22 23 24 25 26 27 28 29 30 31 32 33 34 35 36 37 38 39 40 41 42 43 44 45 46 47 48 49 50
000
ASUS41 KCLE 301410
RWRCLE
OHIO REGIONAL WEATHER ROUNDUP
NATIONAL WEATHER SERVICE CLEVELAND, OH
900 AM EST FRI JAN 30 2015

NOTE: "FAIR" INDICATES FEW OR NO CLOUDS BELOW 12,000 FEET WITH NO
SIGNIFICANT WEATHER AND/OR OBSTRUCTIONS TO VISIBILITY.

OHZ001>008-015>018-024>027-034-035-043-044-301500-
   NORTHWEST OHIO

CITY           SKY/WX    TMP DP  RH WIND       PRES   REMARKS
DEFIANCE       CLOUDY    23  10  57 NW12      30.41R WCI  12
FINDLAY        MOSUNNY   21   9  59 N13G26    30.37R WCI   9
TOLEDO EXPRESS SUNNY     18   8  65 N14G21    30.39R WCI   4
TOLEDO EXEC    MOSUNNY   19   6  57 NW22G29   30.40R WCI   2
LIMA           CLOUDY    22  10  60 NW14      30.36R WCI   9
$$

OHZ009>014-019>023-028>033-038-089-301500-
   NORTHEAST OHIO

CITY           SKY/WX    TMP DP  RH WIND       PRES   REMARKS
CLE-HOPKINS    FLURRIES  17  10  74 NW21G29   30.33R WCI   0
CLE-LAKEFRONT  CLOUDY    18  10  71 NW21G30   30.31R WCI   1
CUY CO. ARPT   CLOUDY    19  14  79 NW20G26   30.28R WCI   4
LORAIN-ELYRIA  FLURRIES  17   9  70 N22G30    30.32R WCI   0
ASHTABULA      SNOW      17  13  84 NW18G25   30.21R VSB 1/2 WCI   1
AKRON-CANTON   LGT SNOW  18  12  77 NW15      30.24R WCI   4
WOOSTER        LGT SNOW  17  10  74 N22       30.27R WCI   0
MANSFIELD      LGT SNOW  17  11  77 NW22      30.28R WCI   0
YOUNGSTOWN     LGT SNOW  17  13  84 NW17G25   30.18R VSB 3/4 WCI   1
$$

OHZ042-051>053-060>062-070>072-077>081-301500-
  SOUTHWEST OHIO

CITY           SKY/WX    TMP DP  RH WIND       PRES   REMARKS
CINC-COVINGTON PTSUNNY   28  13  53 N22G30    30.38R WCI  14
CINC-LUNKEN    CLOUDY    28  15  58 N12G23    30.42R WCI  18
HAMILTON       FLURRIES  27  14  58 NW10G25   30.42R WCI  17
DAYTON         MOSUNNY   22  12  65 N16       30.39R WCI   8
WRIGHT-PAT AFB MOSUNNY   22  11  64 NW17G23   30.39R WCI   7
DAYTON GENERAL MOSUNNY   23  10  57 N18G28    30.38R WCI   9
WILMINGTON     MOSUNNY   22  10  60 N21G36    30.36R WCI   6
$$

OHZ036-037-039>041-045>050-054>059-063>069-073>076-082>088-301500-
  CENTRAL AND SOUTHEAST OHIO

CITY           SKY/WX    TMP DP  RH WIND       PRES   REMARKS
COLUMBUS       CLOUDY    22  12  65 NW21G26   30.32R WCI   6
OSU AIRPORT    CLOUDY    22  11  62 NW15G28   30.32R WCI   9
BOLTON FIELD   NOT AVBL
RICKENBACK AFB CLOUDY    22  11  62 NW22G28   30.33R WCI   7
NEWARK         CLOUDY    23  13  65 NW14G22   30.30R WCI  11
MARION         MOSUNNY   20  10  65 N16       30.33R WCI   6
LANCASTER      CLOUDY    23  13  65 NW14      30.32R WCI  11
ZANESVILLE     CLOUDY    22  12  65 NW15      30.27R WCI   9
NEW PHILLY     LGT SNOW  22  13  68 NW17G29   30.26R WCI   8
$$


USA.gov is the U.S. government's official web portal to all federal, state and local government web resources and services.